IWG002 LEBB-LEZL

Flight info

Callsign IWG002
Flight time 1h 3m
Altitude 33000
Route AMTOS L14 NEA NONTU ORBIS DISKO TLD DOPEN MONTO MOLIN HIJ
Aircraft A20N/M-SDE2E3FGHIJ1RWXY/LB1

Departure

Time 2026-04-20 15:51
Airport Bilbao Airport (LEBB)

Arrival

Time 2026-04-20 16:54
Airport Seville Airport (LEZL)
Time Latitude Longitude Altitude Speed Heading
2026-04-20 15:49 43.30154 -2.91584 137 ft 0 kts 276°
2026-04-20 15:50 43.30158 -2.91634 137 ft 21 kts 276°
2026-04-20 15:50 43.30196 -2.92071 137 ft 78 kts 279°
2026-04-20 15:50 43.30291 -2.93145 135 ft 146 kts 277°
2026-04-20 15:50 43.30453 -2.94756 448 ft 173 kts 271°
2026-04-20 15:51 43.30408 -2.96266 1590 ft 160 kts 272°
2026-04-20 15:51 43.30713 -2.97831 2032 ft 186 kts 308°
2026-04-20 15:51 43.31686 -2.99121 2530 ft 207 kts 313°
2026-04-20 15:51 43.32372 -3.00962 3107 ft 230 kts 279°
2026-04-20 15:52 43.32197 -3.03218 3759 ft 249 kts 246°
2026-04-20 15:52 43.31136 -3.05163 4315 ft 270 kts 220°
2026-04-20 15:52 43.29345 -3.06433 4396 ft 310 kts 200°
2026-04-20 15:53 43.24747 -3.08537 4465 ft 388 kts 199°
2026-04-20 15:53 43.22103 -3.09809 5131 ft 396 kts 200°
2026-04-20 15:53 43.19632 -3.11031 7419 ft 364 kts 201°
2026-04-20 15:53 43.17350 -3.12190 9280 ft 344 kts 202°
2026-04-20 15:54 43.15141 -3.13349 10809 ft 332 kts 202°
2026-04-20 15:54 43.12978 -3.14523 11416 ft 346 kts 203°
2026-04-20 15:54 43.10701 -3.15799 11988 ft 360 kts 204°
2026-04-20 15:54 43.08344 -3.17149 12585 ft 372 kts 204°
2026-04-20 15:55 43.05928 -3.18560 13299 ft 381 kts 205°
2026-04-20 15:55 43.03482 -3.20008 14108 ft 386 kts 205°
2026-04-20 15:55 43.01024 -3.21550 14896 ft 389 kts 210°
2026-04-20 15:55 42.98677 -3.23437 15697 ft 393 kts 214°
2026-04-20 15:56 42.96369 -3.25465 16524 ft 397 kts 215°
2026-04-20 15:56 42.94056 -3.27561 17379 ft 401 kts 216°
2026-04-20 15:56 42.91771 -3.29658 18183 ft 405 kts 216°
2026-04-20 15:56 42.89414 -3.31838 18885 ft 410 kts 216°
2026-04-20 15:57 42.87047 -3.34037 19589 ft 414 kts 216°
2026-04-20 15:57 42.84649 -3.36264 20306 ft 418 kts 216°
2026-04-20 15:57 42.82222 -3.38519 21006 ft 423 kts 216°
2026-04-20 15:57 42.79781 -3.40787 21691 ft 427 kts 216°
2026-04-20 15:58 42.77338 -3.43054 22317 ft 432 kts 216°
2026-04-20 15:58 42.74810 -3.45395 23000 ft 436 kts 216°
2026-04-20 15:58 42.72318 -3.47697 23650 ft 440 kts 216°
2026-04-20 15:58 42.69773 -3.50040 24237 ft 443 kts 216°
2026-04-20 15:59 42.67212 -3.52390 24827 ft 445 kts 216°
2026-04-20 15:59 42.64624 -3.54764 25449 ft 448 kts 216°
2026-04-20 15:59 42.62032 -3.57135 26059 ft 450 kts 216°
2026-04-20 15:59 42.59422 -3.59523 26655 ft 453 kts 216°
2026-04-20 16:00 42.56825 -3.61898 27247 ft 455 kts 217°
2026-04-20 16:00 42.54202 -3.64294 27834 ft 457 kts 217°
2026-04-20 16:00 42.51541 -3.66724 28383 ft 460 kts 217°
2026-04-20 16:00 42.48872 -3.69158 28949 ft 463 kts 217°
2026-04-20 16:01 42.46223 -3.71574 29618 ft 461 kts 217°
2026-04-20 16:01 42.43568 -3.73990 30366 ft 458 kts 217°
2026-04-20 16:01 42.40935 -3.76388 30934 ft 457 kts 217°
2026-04-20 16:01 42.38302 -3.78786 31535 ft 455 kts 217°
2026-04-20 16:02 42.35678 -3.81177 32235 ft 450 kts 217°
2026-04-20 16:02 42.33060 -3.83561 32391 ft 459 kts 217°
2026-04-20 16:02 42.27683 -3.88446 32443 ft 471 kts 216°
2026-04-20 16:03 42.22229 -3.93383 32498 ft 471 kts 216°
2026-04-20 16:03 42.16778 -3.98300 32557 ft 471 kts 216°
2026-04-20 16:04 42.11331 -4.03204 32592 ft 471 kts 216°
2026-04-20 16:04 42.05891 -4.08085 32648 ft 471 kts 215°
2026-04-20 16:05 42.02917 -4.09978 32670 ft 477 kts 200°
2026-04-20 16:05 41.99644 -4.10883 32713 ft 480 kts 192°
2026-04-20 16:05 41.93022 -4.11956 32751 ft 481 kts 189°
2026-04-20 16:06 41.86345 -4.12785 32802 ft 481 kts 188°
2026-04-20 16:06 41.80793 -4.13411 32850 ft 481 kts 188°
2026-04-20 16:07 41.74117 -4.14151 32904 ft 480 kts 188°
2026-04-20 16:07 41.67450 -4.14896 32933 ft 480 kts 188°
2026-04-20 16:08 41.60786 -4.15646 32946 ft 481 kts 188°
2026-04-20 16:08 41.54152 -4.16406 32951 ft 481 kts 188°
2026-04-20 16:09 41.47478 -4.17162 32949 ft 481 kts 188°
2026-04-20 16:09 41.40794 -4.17911 32962 ft 482 kts 188°
2026-04-20 16:10 41.34102 -4.18765 32956 ft 480 kts 193°
2026-04-20 16:10 41.27595 -4.20769 32962 ft 478 kts 197°
2026-04-20 16:11 41.21119 -4.22654 32968 ft 483 kts 186°
2026-04-20 16:11 41.14362 -4.22360 32964 ft 486 kts 180°
2026-04-20 16:12 41.07720 -4.23235 32966 ft 478 kts 197°
2026-04-20 16:12 41.01344 -4.25596 32970 ft 478 kts 199°
2026-04-20 16:13 40.94940 -4.28067 32967 ft 478 kts 199°
2026-04-20 16:13 40.88435 -4.29852 32960 ft 483 kts 186°
2026-04-20 16:14 40.81701 -4.30116 32961 ft 484 kts 184°
2026-04-20 16:14 40.74961 -4.30240 32963 ft 484 kts 184°
2026-04-20 16:15 40.68259 -4.30385 32958 ft 483 kts 184°
2026-04-20 16:15 40.61528 -4.30585 32953 ft 483 kts 184°
2026-04-20 16:16 40.54789 -4.30835 32948 ft 482 kts 184°
2026-04-20 16:16 40.48100 -4.31118 32941 ft 482 kts 185°
2026-04-20 16:17 40.41398 -4.31430 32936 ft 481 kts 185°
2026-04-20 16:17 40.34707 -4.31758 32933 ft 481 kts 185°
2026-04-20 16:18 40.28014 -4.32098 32926 ft 481 kts 185°
2026-04-20 16:18 40.21349 -4.32440 32914 ft 481 kts 185°
2026-04-20 16:19 40.14671 -4.32787 32911 ft 480 kts 185°
2026-04-20 16:19 40.07974 -4.33140 32909 ft 480 kts 185°
2026-04-20 16:20 40.01289 -4.33496 32914 ft 480 kts 185°
2026-04-20 16:20 39.94672 -4.34149 32911 ft 478 kts 190°
2026-04-20 16:21 39.88093 -4.35492 32922 ft 477 kts 192°
2026-04-20 16:21 39.81580 -4.36970 32921 ft 477 kts 193°
2026-04-20 16:22 39.75006 -4.38453 32918 ft 477 kts 192°
2026-04-20 16:22 39.68467 -4.39866 32925 ft 477 kts 192°
2026-04-20 16:23 39.61918 -4.41264 32923 ft 477 kts 192°
2026-04-20 16:23 39.55377 -4.42654 32924 ft 477 kts 192°
2026-04-20 16:24 39.48797 -4.44050 32941 ft 478 kts 192°
2026-04-20 16:24 39.43711 -4.45128 32923 ft 477 kts 192°
2026-04-20 16:25 39.39447 -4.46032 32934 ft 478 kts 192°
2026-04-20 16:25 39.33083 -4.47381 32932 ft 478 kts 192°
2026-04-20 16:26 39.26515 -4.48771 32930 ft 478 kts 192°
2026-04-20 16:26 39.23317 -4.49861 32933 ft 474 kts 204°
2026-04-20 16:26 39.20428 -4.51724 32935 ft 472 kts 211°
2026-04-20 16:27 39.14857 -4.56030 32919 ft 472 kts 213°
2026-04-20 16:27 39.09327 -4.60623 32922 ft 472 kts 214°
2026-04-20 16:28 39.03851 -4.65292 32918 ft 472 kts 215°
2026-04-20 16:28 38.98367 -4.69973 32415 ft 477 kts 214°
2026-04-20 16:29 38.95591 -4.72323 31776 ft 479 kts 214°
2026-04-20 16:29 38.92824 -4.74665 31133 ft 473 kts 214°
2026-04-20 16:29 38.90122 -4.76951 30535 ft 467 kts 214°
2026-04-20 16:29 38.87423 -4.79232 29931 ft 462 kts 214°
2026-04-20 16:30 38.84749 -4.81489 29248 ft 458 kts 214°
2026-04-20 16:30 38.82095 -4.83729 28597 ft 455 kts 214°
2026-04-20 16:30 38.79462 -4.85949 27970 ft 452 kts 214°
2026-04-20 16:30 38.76837 -4.88159 27347 ft 448 kts 214°
2026-04-20 16:31 38.74233 -4.90350 26762 ft 445 kts 214°
2026-04-20 16:31 38.71654 -4.92519 26178 ft 442 kts 214°
2026-04-20 16:31 38.69089 -4.94672 25636 ft 438 kts 214°
2026-04-20 16:31 38.66546 -4.96807 25100 ft 435 kts 214°
2026-04-20 16:32 38.64026 -4.98921 24577 ft 431 kts 214°
2026-04-20 16:32 38.61530 -5.01011 24071 ft 428 kts 214°
2026-04-20 16:32 38.59068 -5.03072 23591 ft 425 kts 214°
2026-04-20 16:32 38.56605 -5.05133 23035 ft 421 kts 214°
2026-04-20 16:33 38.54163 -5.07167 22467 ft 418 kts 213°
2026-04-20 16:33 38.51593 -5.08901 21925 ft 416 kts 206°
2026-04-20 16:33 38.48957 -5.10399 21407 ft 413 kts 205°
2026-04-20 16:33 38.46279 -5.11699 20898 ft 410 kts 199°
2026-04-20 16:34 38.43595 -5.12794 20400 ft 408 kts 199°
2026-04-20 16:34 38.40908 -5.13863 19899 ft 403 kts 199°
2026-04-20 16:34 38.38247 -5.14904 19442 ft 392 kts 199°
2026-04-20 16:34 38.35688 -5.15905 18998 ft 382 kts 199°
2026-04-20 16:35 38.33162 -5.16892 18583 ft 373 kts 199°
2026-04-20 16:35 38.30699 -5.17851 18187 ft 364 kts 199°
2026-04-20 16:35 38.28329 -5.18778 17759 ft 361 kts 199°
2026-04-20 16:35 38.25923 -5.19719 17319 ft 362 kts 198°
2026-04-20 16:36 38.23528 -5.20651 16869 ft 356 kts 198°
2026-04-20 16:36 38.21189 -5.21561 16469 ft 347 kts 198°
2026-04-20 16:36 38.18901 -5.22453 16075 ft 339 kts 198°
2026-04-20 16:36 38.16673 -5.23322 15711 ft 330 kts 198°
2026-04-20 16:37 38.14525 -5.24156 15362 ft 322 kts 198°
2026-04-20 16:37 38.12414 -5.24978 15019 ft 313 kts 198°
2026-04-20 16:37 38.10357 -5.25776 14697 ft 305 kts 198°
2026-04-20 16:37 38.08350 -5.26557 14412 ft 298 kts 198°
2026-04-20 16:38 38.06365 -5.27327 14104 ft 297 kts 198°
2026-04-20 16:38 38.04387 -5.28093 13797 ft 296 kts 199°
2026-04-20 16:38 38.02417 -5.28862 13478 ft 293 kts 198°
2026-04-20 16:38 38.00538 -5.29584 13483 ft 271 kts 198°
2026-04-20 16:39 37.98831 -5.30247 13494 ft 249 kts 198°
2026-04-20 16:39 37.97237 -5.30854 13494 ft 231 kts 197°
2026-04-20 16:39 37.95742 -5.31387 13369 ft 219 kts 198°
2026-04-20 16:39 37.94260 -5.31979 12725 ft 230 kts 200°
2026-04-20 16:40 37.92697 -5.32650 11975 ft 248 kts 199°
2026-04-20 16:40 37.90984 -5.33297 11377 ft 260 kts 197°
2026-04-20 16:40 37.89255 -5.33940 11059 ft 258 kts 198°
2026-04-20 16:40 37.87545 -5.34602 10746 ft 256 kts 198°
2026-04-20 16:41 37.85874 -5.35253 10416 ft 255 kts 198°
2026-04-20 16:41 37.84150 -5.35910 10096 ft 253 kts 198°
2026-04-20 16:41 37.82471 -5.36561 9769 ft 252 kts 198°
2026-04-20 16:41 37.80813 -5.37203 9433 ft 251 kts 198°
2026-04-20 16:42 37.79131 -5.37861 9097 ft 249 kts 200°
2026-04-20 16:42 37.77580 -5.38758 8741 ft 248 kts 208°
2026-04-20 16:42 37.76075 -5.39821 8417 ft 247 kts 210°
2026-04-20 16:42 37.74585 -5.40892 8109 ft 245 kts 210°
2026-04-20 16:43 37.73110 -5.41962 7895 ft 240 kts 210°
2026-04-20 16:43 37.71698 -5.42987 7824 ft 230 kts 210°
2026-04-20 16:43 37.70296 -5.44009 7461 ft 234 kts 210°
2026-04-20 16:43 37.68886 -5.45038 7207 ft 232 kts 210°
2026-04-20 16:44 37.67490 -5.46061 6934 ft 232 kts 210°
2026-04-20 16:44 37.66117 -5.47067 6678 ft 231 kts 210°
2026-04-20 16:44 37.64707 -5.48095 6443 ft 230 kts 210°
2026-04-20 16:44 37.63339 -5.49095 6121 ft 231 kts 210°
2026-04-20 16:45 37.61946 -5.50113 5868 ft 230 kts 210°
2026-04-20 16:45 37.60559 -5.51129 5618 ft 230 kts 210°
2026-04-20 16:45 37.59126 -5.52043 5374 ft 229 kts 201°
2026-04-20 16:45 37.57616 -5.52678 5084 ft 229 kts 197°
2026-04-20 16:46 37.56087 -5.53263 4834 ft 229 kts 199°
2026-04-20 16:46 37.54616 -5.53949 4644 ft 226 kts 201°
2026-04-20 16:46 37.53187 -5.54646 4590 ft 216 kts 201°
2026-04-20 16:46 37.51786 -5.55329 4417 ft 215 kts 202°
2026-04-20 16:47 37.50389 -5.56016 4238 ft 214 kts 202°
2026-04-20 16:47 37.49013 -5.56695 4005 ft 214 kts 201°
2026-04-20 16:47 37.47635 -5.57379 3837 ft 212 kts 202°
2026-04-20 16:47 37.46264 -5.58051 3596 ft 211 kts 202°
2026-04-20 16:48 37.44919 -5.58710 3561 ft 202 kts 202°
2026-04-20 16:48 37.43642 -5.59361 3555 ft 192 kts 208°
2026-04-20 16:48 37.42707 -5.60512 3307 ft 192 kts 248°
2026-04-20 16:48 37.42470 -5.62129 3048 ft 192 kts 264°
2026-04-20 16:49 37.42362 -5.63784 2946 ft 185 kts 264°
2026-04-20 16:49 37.42270 -5.64838 2925 ft 179 kts 264°
2026-04-20 16:49 37.42144 -5.66390 2750 ft 178 kts 264°
2026-04-20 16:49 37.42034 -5.67934 2547 ft 177 kts 264°
2026-04-20 16:50 37.41943 -5.69436 2460 ft 166 kts 266°
2026-04-20 16:50 37.41908 -5.70876 2148 ft 164 kts 266°
2026-04-20 16:50 37.41881 -5.72261 1990 ft 151 kts 266°
2026-04-20 16:50 37.41862 -5.73510 1919 ft 136 kts 268°
2026-04-20 16:51 37.41848 -5.74702 1563 ft 142 kts 268°
2026-04-20 16:51 37.41843 -5.75951 1366 ft 138 kts 268°
2026-04-20 16:51 37.41810 -5.77105 1073 ft 133 kts 262°
2026-04-20 16:51 37.41778 -5.78416 820 ft 156 kts 269°
2026-04-20 16:52 37.41853 -5.79751 820 ft 150 kts 271°
2026-04-20 16:52 37.41867 -5.81041 784 ft 144 kts 268°
2026-04-20 16:52 37.41851 -5.82303 677 ft 145 kts 265°
2026-04-20 16:52 37.41812 -5.83529 620 ft 144 kts 269°
2026-04-20 16:53 37.41813 -5.84794 470 ft 148 kts 268°
2026-04-20 16:53 37.41809 -5.86080 300 ft 150 kts 266°
2026-04-20 16:53 37.41809 -5.87404 140 ft 152 kts 265°
2026-04-20 16:53 37.41796 -5.88640 112 ft 121 kts 270°
2026-04-20 16:54 37.41800 -5.89408 106 ft 53 kts 270°
2026-04-20 16:54 37.41798 -5.89597 104 ft 0 kts 268°
2026-04-20 16:54 37.41798 -5.89607 104 ft 8 kts 270°
2026-04-20 16:55 37.41864 -5.89788 104 ft 32 kts 319°
2026-04-20 16:55 37.42053 -5.89901 103 ft 27 kts 344°
2026-04-20 16:55 37.42202 -5.89955 102 ft 0 kts 342°